| time (UTC) | temp F | wind direction | speed knots | gust knots | rain 1hr in | rain 24hr in | rain mn in | humidity % | barometer mb |
| 20260906233904 | 55 | 144 | 1.7 | 4.3 | 0.00 | 0.07 | 0.07 | 90 | 1015.2 |
| 20260906232904 | 55 | 153 | 1.7 | 4.3 | 0.00 | 0.07 | 0.07 | 90 | 1015.2 |
| 20260906231904 | 55 | 137 | 1.7 | 4.3 | 0.00 | 0.08 | 0.07 | 92 | 1015.3 |
| 20260906231404 | 55 | 123 | 1.7 | 5.2 | 0.00 | 0.08 | 0.07 | 93 | 1015.3 |
| 20260906230903 | 55 | 157 | 1.7 | 4.3 | 0.00 | 0.08 | 0.07 | 93 | 1015.3 |
| 20260906230404 | 55 | 152 | 1.7 | 2.6 | 0.00 | 0.08 | 0.07 | 93 | 1015.3 |
| 20260906225903 | 55 | 139 | 2.6 | 4.3 | 0.00 | 0.09 | 0.07 | 93 | 1015.4 |
| 20260906225403 | 55 | 156 | 1.7 | 5.2 | 0.00 | 0.09 | 0.07 | 94 | 1015.4 |
| 20260906224903 | 55 | 159 | 1.7 | 6.1 | 0.00 | 0.09 | 0.07 | 95 | 1015.4 |
| 20260906224404 | 55 | 158 | 1.7 | 5.2 | 0.00 | 0.10 | 0.07 | 95 | 1015.5 |
| 20260906223903 | 55 | 163 | 1.7 | 2.6 | 0.00 | 0.10 | 0.07 | 96 | 1015.4 |
| 20260906223404 | 55 | 155 | 1.7 | 5.2 | 0.00 | 0.10 | 0.07 | 96 | 1015.5 |
| 20260906222903 | 54 | 143 | 1.7 | 5.2 | 0.00 | 0.10 | 0.07 | 96 | 1015.6 |
| 20260906222403 | 54 | 158 | 1.7 | 5.2 | 0.00 | 0.10 | 0.07 | 96 | 1015.6 |
| 20260906221404 | 54 | 151 | 1.7 | 5.2 | 0.00 | 0.11 | 0.07 | 97 | 1015.6 |
| 20260906220400 | 54 | 158 | 1.7 | 5.2 | 0.00 | 0.11 | 0.07 | 97 | 1015.6 |
| 20260906214900 | 54 | 155 | 1.7 | 4.3 | 0.00 | 0.12 | 0.07 | 98 | 1015.8 |
| 20260906213900 | 54 | 131 | 0.9 | 2.6 | 0.00 | 0.12 | 0.07 | 97 | 1015.8 |
| 20260906213359 | 54 | 126 | 1.7 | 4.3 | 0.01 | 0.12 | 0.07 | 98 | 1015.9 |
| 20260906212900 | 54 | 155 | 1.7 | 2.6 | 0.01 | 0.12 | 0.07 | 98 | 1015.7 |
| 20260906212400 | 54 | 130 | 0.9 | 2.6 | 0.01 | 0.13 | 0.07 | 98 | 1015.9 |
| 20260906211900 | 54 | 127 | 0.9 | 4.3 | 0.01 | 0.13 | 0.07 | 98 | 1015.8 |
| 20260906211400 | 53 | 140 | 1.7 | 4.3 | 0.01 | 0.13 | 0.07 | 98 | 1015.9 |
| 20260906210400 | 53 | 139 | 1.7 | 2.6 | 0.01 | 0.13 | 0.07 | 98 | 1016.0 |
| 20260906205900 | 53 | 146 | 1.7 | 2.6 | 0.01 | 0.13 | 0.07 | 98 | 1016.0 |
| 20260906205400 | 53 | 138 | 1.7 | 4.3 | 0.01 | 0.13 | 0.07 | 98 | 1016.1 |
| 20260906203901 | 53 | 149 | 1.7 | 5.2 | 0.01 | 0.13 | 0.07 | 98 | 1016.2 |
| 20260906203400 | 52 | 152 | 1.7 | 2.6 | 0.00 | 0.12 | 0.06 | 98 | 1016.2 |
| 20260906202900 | 53 | 128 | 2.6 | 5.2 | 0.00 | 0.12 | 0.06 | 98 | 1016.3 |
| 20260906201901 | 52 | 111 | 1.7 | 4.3 | 0.00 | 0.12 | 0.06 | 98 | 1016.4 |
| 20260906201400 | 52 | 130 | 1.7 | 2.6 | 0.00 | 0.13 | 0.06 | 98 | 1016.4 |
| 20260906200900 | 52 | 114 | 1.7 | 2.6 | 0.00 | 0.13 | 0.06 | 98 | 1016.5 |
| 20260906200400 | 51 | 56 | 0.9 | 2.6 | 0.00 | 0.13 | 0.06 | 98 | 1016.4 |
| 20260906195901 | 51 | 98 | 0.9 | 1.7 | 0.00 | 0.14 | 0.06 | 98 | 1016.5 |
| 20260906195400 | 51 | 80 | 0.9 | 2.6 | 0.00 | 0.14 | 0.06 | 98 | 1016.6 |
| 20260906194900 | 51 | 130 | 0.9 | 2.6 | 0.00 | 0.14 | 0.06 | 98 | 1016.6 |
| 20260906194400 | 51 | 71 | 0.9 | 2.6 | 0.00 | 0.14 | 0.06 | 98 | 1016.6 |
| 20260906193400 | 51 | 100 | 0.0 | 2.6 | 0.00 | 0.15 | 0.06 | 98 | 1016.6 |
| 20260906192900 | 51 | 65 | 0.9 | 2.6 | 0.00 | 0.16 | 0.06 | 98 | 1016.8 |
| 20260906192401 | 50 | 70 | 0.9 | 2.6 | 0.00 | 0.16 | 0.06 | 98 | 1016.8 |
| 20260906191900 | 50 | 138 | 0.0 | 1.7 | 0.00 | 0.17 | 0.06 | 98 | 1016.7 |
| 20260906191401 | 50 | 138 | 0.9 | 2.6 | 0.01 | 0.17 | 0.06 | 98 | 1016.7 |
| 20260906190401 | 50 | 67 | 0.9 | 2.6 | 0.01 | 0.17 | 0.06 | 98 | 1016.8 |
| 20260906185900 | 50 | 56 | 0.9 | 2.6 | 0.01 | 0.18 | 0.06 | 98 | 1016.8 |
| 20260906185400 | 50 | 76 | 1.7 | 2.6 | 0.01 | 0.18 | 0.06 | 98 | 1016.9 |
| 20260906184901 | 50 | 112 | 1.7 | 2.6 | 0.01 | 0.18 | 0.06 | 98 | 1016.9 |
| 20260906184400 | 50 | 75 | 0.9 | 2.6 | 0.01 | 0.18 | 0.06 | 98 | 1016.9 |
| 20260906183900 | 50 | 52 | 1.7 | 2.6 | 0.02 | 0.19 | 0.06 | 98 | 1016.9 |
| 20260906183400 | 49 | 40 | 0.9 | 2.6 | 0.02 | 0.19 | 0.06 | 98 | 1017.0 |
| 20260906182900 | 49 | 43 | 0.9 | 1.7 | 0.02 | 0.20 | 0.06 | 98 | 1017.0 |
| 20260906182400 | 49 | 48 | 0.0 | 0.0 | 0.03 | 0.21 | 0.06 | 98 | 1017.1 |
| 20260906181900 | 49 | 48 | 0.0 | 0.0 | 0.03 | 0.21 | 0.06 | 98 | 1017.2 |
| 20260906181400 | 49 | 48 | 0.0 | 0.9 | 0.02 | 0.20 | 0.05 | 98 | 1017.2 |
| 20260906180901 | 49 | 48 | 0.9 | 1.7 | 0.02 | 0.21 | 0.05 | 98 | 1017.2 |
| 20260906180401 | 49 | 48 | 0.0 | 0.9 | 0.02 | 0.22 | 0.05 | 98 | 1017.2 |
| 20260906175900 | 49 | 48 | 0.9 | 2.6 | 0.02 | 0.22 | 0.05 | 98 | 1017.2 |
| 20260906175400 | 49 | 84 | 0.0 | 1.7 | 0.02 | 0.22 | 0.05 | 98 | 1017.4 |
| 20260906174400 | 48 | 69 | 0.9 | 2.6 | 0.02 | 0.23 | 0.05 | 98 | 1017.5 |
| 20260906173901 | 48 | 47 | 0.9 | 2.6 | 0.01 | 0.22 | 0.04 | 98 | 1017.4 |
| 20260906173401 | 48 | 36 | 0.9 | 2.6 | 0.01 | 0.22 | 0.04 | 98 | 1017.5 |
| 20260906172900 | 48 | 92 | 0.0 | 1.7 | 0.01 | 0.22 | 0.04 | 98 | 1017.5 |
| 20260906172400 | 48 | 123 | 0.9 | 1.7 | 0.00 | 0.21 | 0.03 | 98 | 1017.7 |
| 20260906171900 | 48 | 82 | 0.9 | 1.7 | 0.00 | 0.21 | 0.03 | 98 | 1017.6 |
| 20260906171401 | 48 | 82 | 0.9 | 1.7 | 0.01 | 0.22 | 0.03 | 98 | 1017.6 |
| 20260906170900 | 48 | 141 | 0.9 | 2.6 | 0.01 | 0.22 | 0.03 | 98 | 1017.7 |
| 20260906165901 | 48 | 117 | 0.9 | 1.7 | 0.01 | 0.22 | 0.03 | 98 | 1017.8 |
| 20260906165401 | 47 | 72 | 0.9 | 2.6 | 0.01 | 0.22 | 0.03 | 98 | 1017.9 |
| 20260906164901 | 47 | 28 | 0.0 | 1.7 | 0.01 | 0.22 | 0.03 | 98 | 1017.9 |
| 20260906164401 | 47 | 28 | 0.0 | 0.0 | 0.01 | 0.22 | 0.03 | 98 | 1018.0 |
| 20260906163900 | 47 | 28 | 0.0 | 0.0 | 0.01 | 0.22 | 0.03 | 98 | 1018.1 |
| 20260906163401 | 47 | 28 | 0.0 | 0.9 | 0.01 | 0.22 | 0.03 | 98 | 1018.1 |
| 20260906162900 | 47 | 28 | 0.0 | 0.9 | 0.01 | 0.22 | 0.03 | 98 | 1018.2 |
| 20260906162400 | 47 | 28 | 0.0 | 0.9 | 0.01 | 0.22 | 0.03 | 98 | 1018.2 |
| 20260906161400 | 47 | 28 | 0.0 | 1.7 | 0.00 | 0.21 | 0.02 | 98 | 1018.4 |
| 20260906160401 | 47 | 268 | 0.0 | 0.9 | 0.00 | 0.21 | 0.02 | 98 | 1018.4 |
| 20260906155900 | 47 | 268 | 0.0 | 0.0 | 0.00 | 0.21 | 0.02 | 98 | 1018.4 |
| 20260906154901 | 47 | 268 | 0.0 | 0.9 | 0.00 | 0.22 | 0.02 | 98 | 1018.5 |
| 20260906154401 | 47 | 268 | 0.0 | 0.0 | 0.00 | 0.22 | 0.02 | 98 | 1018.5 |
| 20260906153901 | 47 | 268 | 0.0 | 0.0 | 0.00 | 0.22 | 0.02 | 98 | 1018.5 |
| 20260906153401 | 46 | 268 | 0.0 | 0.0 | 0.00 | 0.22 | 0.02 | 98 | 1018.4 |
| 20260906152901 | 46 | 268 | 0.0 | 0.0 | 0.00 | 0.22 | 0.02 | 98 | 1018.4 |
| 20260906151900 | 46 | 268 | 0.0 | 0.0 | 0.00 | 0.23 | 0.02 | 98 | 1018.4 |
| 20260906151401 | 46 | 268 | 0.0 | 0.9 | 0.00 | 0.23 | 0.02 | 98 | 1018.4 |
| 20260906150901 | 46 | 268 | 0.9 | 2.6 | 0.00 | 0.23 | 0.02 | 98 | 1018.4 |
| 20260906145901 | 46 | 279 | 0.9 | 1.7 | 0.00 | 0.23 | 0.02 | 98 | 1018.3 |
| 20260906144901 | 46 | 278 | 1.7 | 2.6 | 0.00 | 0.23 | 0.02 | 98 | 1018.2 |
| 20260906143401 | 46 | 263 | 0.0 | 0.9 | 0.00 | 0.23 | 0.02 | 98 | 1018.5 |
| 20260906142901 | 46 | 263 | 0.0 | 0.9 | 0.00 | 0.23 | 0.02 | 98 | 1018.5 |
| 20260906142401 | 46 | 263 | 0.0 | 0.9 | 0.00 | 0.23 | 0.02 | 98 | 1018.5 |
| 20260906141901 | 46 | 263 | 0.0 | 0.9 | 0.00 | 0.23 | 0.02 | 98 | 1018.4 |
| 20260906141401 | 46 | 263 | 0.0 | 0.0 | 0.00 | 0.23 | 0.02 | 98 | 1018.4 |
| 20260906140901 | 46 | 263 | 0.0 | 0.0 | 0.00 | 0.23 | 0.02 | 98 | 1018.5 |
| 20260906140401 | 45 | 263 | 0.0 | 0.9 | 0.00 | 0.23 | 0.02 | 98 | 1018.5 |
| 20260906135901 | 45 | 263 | 0.9 | 1.7 | 0.00 | 0.23 | 0.02 | 98 | 1018.5 |
| 20260906134901 | 46 | 266 | 1.7 | 2.6 | 0.00 | 0.23 | 0.02 | 98 | 1018.5 |
| 20260906134401 | 45 | 254 | 1.7 | 2.6 | 0.00 | 0.23 | 0.02 | 98 | 1018.7 |
| 20260906133901 | 45 | 254 | 1.7 | 2.6 | 0.00 | 0.23 | 0.02 | 98 | 1018.6 |
| 20260906133401 | 45 | 256 | 1.7 | 2.6 | 0.00 | 0.23 | 0.02 | 98 | 1018.7 |
| 20260906132901 | 45 | 288 | 1.7 | 2.6 | 0.00 | 0.23 | 0.02 | 98 | 1018.6 |
| 20260906132401 | 45 | 288 | 1.7 | 2.6 | 0.00 | 0.23 | 0.02 | 98 | 1018.7 |
| 20260906131402 | 45 | 288 | 0.0 | 0.0 | 0.00 | 0.23 | 0.02 | 98 | 1018.8 |
| 20260906130901 | 45 | 288 | 0.0 | 0.0 | 0.00 | 0.23 | 0.02 | 98 | 1018.8 |
| 20260906130402 | 45 | 288 | 0.0 | 0.0 | 0.00 | 0.23 | 0.02 | 98 | 1019.0 |
| 20260906125901 | 45 | 288 | 0.0 | 0.0 | 0.00 | 0.23 | 0.02 | 98 | 1019.1 |
| 20260906125401 | 45 | 288 | 0.0 | 0.0 | 0.01 | 0.23 | 0.02 | 98 | 1019.2 |
| 20260906124901 | 45 | 288 | 0.0 | 0.0 | 0.01 | 0.23 | 0.02 | 98 | 1019.1 |
| 20260906124401 | 45 | 288 | 0.0 | 0.0 | 0.01 | 0.23 | 0.02 | 98 | 1019.0 |
| 20260906122901 | 45 | 288 | 0.0 | 0.0 | 0.01 | 0.23 | 0.02 | 97 | 1019.1 |
| 20260906122402 | 45 | 288 | 0.0 | 0.0 | 0.01 | 0.23 | 0.02 | 97 | 1019.2 |
| 20260906121901 | 45 | 288 | 0.0 | 0.0 | 0.01 | 0.23 | 0.02 | 97 | 1019.2 |
| 20260906121401 | 46 | 288 | 0.0 | 0.0 | 0.01 | 0.23 | 0.02 | 97 | 1019.2 |
| 20260906120402 | 46 | 288 | 0.0 | 0.0 | 0.01 | 0.23 | 0.02 | 98 | 1019.2 |
| 20260906115901 | 46 | 288 | 0.0 | 0.0 | 0.01 | 0.23 | 0.02 | 98 | 1019.2 |
| 20260906115402 | 46 | 288 | 0.0 | 0.0 | 0.00 | 0.22 | 0.01 | 98 | 1019.5 |
| 20260906114901 | 46 | 288 | 0.0 | 0.0 | 0.00 | 0.22 | 0.01 | 98 | 1019.7 |
| 20260906114401 | 46 | 288 | 0.0 | 0.0 | 0.00 | 0.22 | 0.01 | 98 | 1019.9 |
| 20260906113902 | 46 | 288 | 0.0 | 0.0 | 0.00 | 0.22 | 0.01 | 98 | 1020.0 |
| 20260906113402 | 46 | 288 | 0.0 | 0.0 | 0.00 | 0.22 | 0.01 | 98 | 1020.1 |
| 20260906111901 | 45 | 288 | 0.0 | 0.0 | 0.00 | 0.22 | 0.01 | 98 | 1020.2 |
| 20260906111401 | 45 | 288 | 0.0 | 0.0 | 0.00 | 0.22 | 0.01 | 98 | 1020.1 |
| 20260906110901 | 45 | 288 | 0.0 | 0.0 | 0.00 | 0.22 | 0.01 | 98 | 1020.1 |
| 20260906110402 | 45 | 288 | 0.0 | 0.0 | 0.00 | 0.22 | 0.01 | 98 | 1020.3 |
| 20260906105901 | 45 | 288 | 0.0 | 0.0 | 0.00 | 0.22 | 0.01 | 98 | 1020.3 |
| 20260906105401 | 45 | 288 | 0.0 | 0.0 | 0.00 | 0.22 | 0.01 | 98 | 1020.3 |
| 20260906104902 | 45 | 288 | 0.0 | 0.0 | 0.00 | 0.22 | 0.01 | 98 | 1020.3 |
| 20260906104402 | 45 | 288 | 0.0 | 0.0 | 0.00 | 0.22 | 0.01 | 98 | 1020.4 |
| 20260906103901 | 45 | 288 | 0.0 | 0.0 | 0.00 | 0.22 | 0.01 | 98 | 1020.5 |
| 20260906103402 | 45 | 288 | 0.0 | 0.0 | 0.00 | 0.22 | 0.01 | 98 | 1020.5 |
| 20260906102401 | 45 | 288 | 0.0 | 0.0 | 0.00 | 0.22 | 0.01 | 97 | 1020.4 |
| 20260906101902 | 45 | 288 | 0.0 | 0.0 | 0.00 | 0.22 | 0.01 | 97 | 1020.4 |
| 20260906100402 | 45 | 288 | 0.0 | 0.0 | 0.00 | 0.22 | 0.01 | 98 | 1019.9 |
| 20260906095901 | 45 | 288 | 0.0 | 0.0 | 0.00 | 0.22 | 0.01 | 98 | 1020.1 |
| 20260906095402 | 45 | 288 | 0.0 | 0.0 | 0.00 | 0.22 | 0.01 | 98 | 1020.2 |
| 20260906094902 | 45 | 288 | 0.0 | 0.0 | 0.00 | 0.22 | 0.01 | 98 | 1020.1 |
| 20260906094401 | 45 | 288 | 0.0 | 0.0 | 0.00 | 0.22 | 0.01 | 98 | 1019.9 |
| 20260906093902 | 45 | 288 | 0.0 | 0.0 | 0.00 | 0.22 | 0.01 | 98 | 1019.9 |
| 20260906093402 | 45 | 288 | 0.0 | 0.0 | 0.00 | 0.22 | 0.01 | 98 | 1020.2 |
| 20260906092901 | 45 | 288 | 0.0 | 0.0 | 0.00 | 0.22 | 0.01 | 98 | 1020.2 |
| 20260906091902 | 45 | 288 | 0.0 | 0.0 | 0.00 | 0.22 | 0.01 | 97 | 1020.6 |
| 20260906090401 | 45 | 288 | 0.0 | 0.0 | 0.00 | 0.22 | 0.01 | 97 | 1020.5 |
| 20260906085901 | 45 | 288 | 0.0 | 0.0 | 0.00 | 0.22 | 0.01 | 97 | 1020.5 |
| 20260906085402 | 45 | 288 | 0.0 | 0.0 | 0.00 | 0.22 | 0.01 | 97 | 1020.5 |
| 20260906084402 | 45 | 288 | 0.0 | 0.0 | 0.00 | 0.22 | 0.01 | 97 | 1020.5 |
| 20260906083901 | 45 | 288 | 0.0 | 0.9 | 0.00 | 0.22 | 0.01 | 97 | 1020.6 |
| 20260906083402 | 45 | 288 | 0.0 | 0.0 | 0.00 | 0.22 | 0.01 | 97 | 1020.8 |
| 20260906082902 | 45 | 288 | 0.0 | 1.7 | 0.00 | 0.22 | 0.01 | 97 | 1020.8 |
| 20260906082401 | 45 | 290 | 0.9 | 2.6 | 0.00 | 0.22 | 0.01 | 97 | 1020.9 |
| 20260906081902 | 45 | 291 | 0.9 | 2.6 | 0.00 | 0.22 | 0.01 | 97 | 1021.0 |
| 20260906081402 | 45 | 269 | 1.7 | 2.6 | 0.00 | 0.22 | 0.01 | 97 | 1021.1 |
| 20260906080902 | 45 | 285 | 0.0 | 1.7 | 0.00 | 0.22 | 0.01 | 97 | 1021.2 |
| 20260906080402 | 45 | 285 | 0.9 | 1.7 | 0.01 | 0.22 | 0.01 | 97 | 1021.2 |
| 20260906075902 | 45 | 285 | 1.7 | 2.6 | 0.01 | 0.22 | 0.01 | 97 | 1021.1 |
| 20260906075402 | 45 | 170 | 0.9 | 1.7 | 0.01 | 0.22 | 0.01 | 97 | 1021.2 |
| 20260906074902 | 45 | 170 | 0.0 | 0.0 | 0.01 | 0.22 | 0.01 | 97 | 1021.3 |
| 20260906074402 | 45 | 170 | 0.0 | 0.0 | 0.01 | 0.22 | 0.01 | 97 | 1021.3 |
| 20260906073402 | 46 | 170 | 0.0 | 0.0 | 0.01 | 0.22 | 0.01 | 97 | 1021.0 |
| 20260906072902 | 46 | 170 | 0.0 | 0.9 | 0.01 | 0.22 | 0.01 | 97 | 1021.2 |
| 20260906072402 | 46 | 170 | 0.0 | 2.6 | 0.01 | 0.22 | 0.01 | 97 | 1021.2 |
| 20260906071902 | 45 | 170 | 0.9 | 1.7 | 0.01 | 0.22 | 0.01 | 97 | 1021.2 |
| 20260906071402 | 45 | 170 | 0.9 | 1.7 | 0.01 | 0.22 | 0.01 | 97 | 1021.2 |
| 20260906070902 | 46 | 170 | 0.0 | 0.0 | 0.01 | 0.22 | 0.01 | 97 | 1021.0 |
| 20260906070402 | 46 | 170 | 0.0 | 0.0 | 0.00 | 0.21 | 0.00 | 97 | 1021.0 |
| 20260906065902 | 46 | 170 | 0.0 | 0.0 | 0.00 | 0.21 | 0.00 | 97 | 1021.1 |
| 20260906065402 | 46 | 170 | 0.0 | 0.0 | 0.00 | 0.21 | 0.00 | 97 | 1021.1 |
| 20260906064902 | 45 | 170 | 0.0 | 0.9 | 0.00 | 0.21 | 0.00 | 97 | 1021.2 |
| 20260906063902 | 46 | 170 | 0.0 | 0.0 | 0.00 | 0.21 | 0.00 | 97 | 1021.3 |
| 20260906063402 | 46 | 170 | 0.0 | 0.0 | 0.00 | 0.21 | 0.00 | 97 | 1021.2 |
| 20260906062903 | 46 | 170 | 0.0 | 0.0 | 0.00 | 0.21 | 0.00 | 97 | 1021.1 |
| 20260906062402 | 46 | 170 | 0.0 | 0.9 | 0.00 | 0.21 | 0.00 | 97 | 1021.1 |
| 20260906061903 | 46 | 170 | 0.0 | 0.9 | 0.00 | 0.21 | 0.00 | 97 | 1021.3 |
| 20260906061403 | 46 | 170 | 0.9 | 1.7 | 0.00 | 0.21 | 0.00 | 97 | 1021.3 |
| 20260906060902 | 46 | 170 | 0.0 | 0.9 | 0.00 | 0.21 | 0.00 | 97 | 1021.3 |
| 20260906060402 | 46 | 170 | 0.0 | 1.7 | 0.00 | 0.21 | 0.00 | 97 | 1021.3 |
| 20260906055903 | 46 | 170 | 1.7 | 2.6 | 0.00 | 0.21 | 0.21 | 97 | 1021.4 |
| 20260906055403 | 46 | 292 | 0.0 | 0.0 | 0.00 | 0.21 | 0.21 | 97 | 1021.4 |
| 20260906054902 | 46 | 292 | 0.9 | 1.7 | 0.00 | 0.21 | 0.21 | 97 | 1021.4 |
| 20260906054402 | 47 | 292 | 0.9 | 2.6 | 0.00 | 0.21 | 0.21 | 97 | 1021.3 |
| 20260906053902 | 47 | 286 | 0.9 | 2.6 | 0.00 | 0.21 | 0.21 | 97 | 1021.3 |
| 20260906053402 | 47 | 279 | 1.7 | 2.6 | 0.00 | 0.21 | 0.21 | 97 | 1021.2 |
| 20260906052903 | 47 | 285 | 1.7 | 5.2 | 0.00 | 0.21 | 0.21 | 97 | 1021.2 |
| 20260906052402 | 47 | 285 | 2.6 | 6.1 | 0.00 | 0.21 | 0.21 | 97 | 1021.3 |
| 20260906051403 | 47 | 265 | 4.3 | 6.1 | 0.00 | 0.21 | 0.21 | 97 | 1021.3 |
| 20260906050903 | 47 | 270 | 2.6 | 6.1 | 0.00 | 0.21 | 0.21 | 97 | 1021.3 |
| 20260906050403 | 47 | 267 | 4.3 | 7.0 | 0.00 | 0.21 | 0.21 | 97 | 1021.4 |
| 20260906045903 | 47 | 263 | 2.6 | 5.2 | 0.00 | 0.21 | 0.21 | 97 | 1021.5 |
| 20260906045403 | 47 | 272 | 1.7 | 5.2 | 0.00 | 0.21 | 0.21 | 97 | 1021.5 |
| 20260906044902 | 47 | 283 | 2.6 | 5.2 | 0.00 | 0.21 | 0.21 | 97 | 1021.5 |
| 20260906044402 | 47 | 275 | 2.6 | 2.6 | 0.00 | 0.21 | 0.21 | 97 | 1021.5 |
| 20260906043903 | 47 | 238 | 2.6 | 2.6 | 0.00 | 0.21 | 0.21 | 97 | 1021.6 |
| 20260906042902 | 47 | 238 | 1.7 | 2.6 | 0.00 | 0.21 | 0.21 | 97 | 1021.6 |
| 20260906042403 | 47 | 237 | 1.7 | 2.6 | 0.00 | 0.21 | 0.21 | 97 | 1021.6 |
| 20260906041902 | 47 | 236 | 0.9 | 1.7 | 0.00 | 0.21 | 0.21 | 97 | 1021.7 |
| 20260906041402 | 47 | 236 | 0.9 | 2.6 | 0.00 | 0.21 | 0.21 | 97 | 1021.7 |
| 20260906040902 | 47 | 237 | 0.9 | 1.7 | 0.00 | 0.21 | 0.21 | 97 | 1021.7 |
| 20260906040403 | 47 | 227 | 1.7 | 2.6 | 0.00 | 0.21 | 0.21 | 97 | 1021.7 |
| 20260906035903 | 47 | 210 | 0.9 | 2.6 | 0.00 | 0.21 | 0.21 | 97 | 1021.7 |
| 20260906035402 | 47 | 216 | 1.7 | 2.6 | 0.00 | 0.21 | 0.21 | 97 | 1021.7 |
| 20260906034903 | 47 | 210 | 1.7 | 2.6 | 0.00 | 0.21 | 0.21 | 97 | 1021.6 |
| 20260906034403 | 47 | 225 | 0.9 | 2.6 | 0.00 | 0.21 | 0.21 | 97 | 1021.5 |
| 20260906033903 | 47 | 225 | 0.0 | 0.0 | 0.00 | 0.21 | 0.21 | 97 | 1021.5 |
| 20260906033403 | 47 | 225 | 0.0 | 1.7 | 0.00 | 0.21 | 0.21 | 97 | 1021.2 |
| 20260906032902 | 47 | 225 | 0.9 | 2.6 | 0.00 | 0.21 | 0.21 | 97 | 1021.1 |
| 20260906032402 | 46 | 326 | 0.9 | 2.6 | 0.00 | 0.21 | 0.21 | 96 | 1021.0 |
| 20260906031403 | 47 | 351 | 0.0 | 1.7 | 0.00 | 0.21 | 0.21 | 96 | 1020.8 |
| 20260906030903 | 47 | 34 | 0.9 | 2.6 | 0.00 | 0.21 | 0.21 | 96 | 1020.7 |
| 20260906025902 | 47 | 326 | 0.9 | 2.6 | 0.00 | 0.21 | 0.21 | 96 | 1020.5 |
| 20260906025403 | 47 | 343 | 2.6 | 4.3 | 0.00 | 0.21 | 0.21 | 96 | 1020.4 |
| 20260906024903 | 47 | 0 | 2.6 | 6.1 | 0.00 | 0.21 | 0.21 | 96 | 1020.4 |
| 20260906023903 | 47 | 350 | 1.7 | 2.6 | 0.00 | 0.21 | 0.21 | 96 | 1020.3 |
| 20260906023403 | 47 | 353 | 2.6 | 4.3 | 0.00 | 0.21 | 0.21 | 96 | 1020.3 |
| 20260906022903 | 47 | 356 | 1.7 | 2.6 | 0.00 | 0.21 | 0.21 | 96 | 1020.3 |
| 20260906021403 | 48 | 349 | 0.9 | 2.6 | 0.00 | 0.21 | 0.21 | 96 | 1020.3 |
| 20260906020904 | 48 | 349 | 0.9 | 2.6 | 0.00 | 0.21 | 0.21 | 96 | 1020.5 |
| 20260906020404 | 48 | 349 | 0.0 | 2.6 | 0.00 | 0.21 | 0.21 | 96 | 1020.4 |
| 20260906015903 | 48 | 349 | 0.0 | 2.6 | 0.00 | 0.21 | 0.21 | 96 | 1020.3 |
| 20260906015403 | 48 | 349 | 1.7 | 2.6 | 0.00 | 0.21 | 0.21 | 96 | 1020.3 |
| 20260906014903 | 48 | 343 | 1.7 | 2.6 | 0.00 | 0.21 | 0.21 | 96 | 1020.3 |
| 20260906014403 | 48 | 346 | 0.9 | 1.7 | 0.00 | 0.21 | 0.21 | 96 | 1020.3 |
| 20260906013903 | 48 | 346 | 0.9 | 2.6 | 0.00 | 0.21 | 0.21 | 96 | 1020.3 |
| 20260906013404 | 48 | 350 | 1.7 | 2.6 | 0.00 | 0.21 | 0.21 | 96 | 1020.3 |
| 20260906012903 | 48 | 11 | 0.9 | 1.7 | 0.00 | 0.21 | 0.21 | 96 | 1020.3 |
| 20260906012403 | 48 | 11 | 1.7 | 2.6 | 0.00 | 0.21 | 0.21 | 96 | 1020.3 |
| 20260906011903 | 48 | 355 | 1.7 | 2.6 | 0.00 | 0.21 | 0.21 | 96 | 1020.4 |
| 20260906010904 | 48 | 5 | 0.9 | 2.6 | 0.00 | 0.21 | 0.21 | 96 | 1020.5 |
| 20260906010403 | 48 | 341 | 0.0 | 0.0 | 0.00 | 0.21 | 0.21 | 96 | 1020.4 |
| 20260906005903 | 48 | 341 | 0.0 | 0.0 | 0.00 | 0.21 | 0.21 | 96 | 1020.4 |
| 20260906005403 | 48 | 341 | 0.0 | 2.6 | 0.00 | 0.21 | 0.21 | 96 | 1020.4 |
| 20260906004903 | 48 | 341 | 0.9 | 2.6 | 0.00 | 0.21 | 0.21 | 96 | 1020.2 |
| 20260906004404 | 48 | 9 | 0.9 | 2.6 | 0.00 | 0.21 | 0.21 | 96 | 1020.2 |
| 20260906003403 | 48 | 330 | 0.9 | 2.6 | 0.00 | 0.21 | 0.21 | 96 | 1020.2 |
| 20260906002903 | 48 | 348 | 1.7 | 2.6 | 0.00 | 0.21 | 0.21 | 96 | 1020.3 |
| 20260906002403 | 48 | 338 | 0.0 | 2.6 | 0.00 | 0.21 | 0.21 | 96 | 1020.3 |
| 20260906001404 | 48 | 342 | 0.9 | 2.6 | 0.01 | 0.21 | 0.21 | 96 | 1020.2 |
| 20260906000904 | 49 | 325 | 0.9 | 2.6 | 0.01 | 0.21 | 0.21 | 96 | 1020.1 |
| 20260906000403 | 49 | 310 | 0.9 | 2.6 | 0.01 | 0.21 | 0.21 | 96 | 1020.2 |
| 20260905235903 | 49 | 355 | 1.7 | 2.6 | 0.02 | 0.21 | 0.21 | 96 | 1020.1 |
| 20260905235403 | 49 | 338 | 1.7 | 4.3 | 0.02 | 0.21 | 0.21 | 96 | 1020.1 |